Regional Weather Roundup
Issued by NWS Charleston, SC

Current Version | Previous Version | Graphics & Text | Print | Product List | Glossary On
Versions: 1 2 3 4 5 6 7 8 9 10 11 12 13 14 15 16 17 18 19 20 21 22 23 24 25 26 27 28 29 30 31 32 33 34 35 36 37 38 39 40 41 42 43 44 45 46 47 48 49 50
000
ASUS42 KCHS 041727
RWRCHS

REGIONAL WEATHER ROUNDUP
NATIONAL WEATHER SERVICE CHARLESTON SC
100 PM EDT FRI SEP 04 2015

NOTE: "FAIR" INDICATES FEW OR NO CLOUDS BELOW 12,000 FEET WITH NO
SIGNIFICANT WEATHER AND/OR OBSTRUCTIONS TO VISIBILITY.

NOT ALL STATIONS ARE QUALITY CONTROLLED BY THE NATIONAL
WEATHER SERVICE. USE DATA WITH CAUTION...ESPECIALLY
DEWPOINT OBSERVATIONS.

SCZ027-030-031-034>040-042>050-041800-
...SOUTHEAST SOUTH CAROLINA...

CITY           SKY/WX    TMP DP  RH WIND       PRES   REMARKS
N CHARLESTON   MOSUNNY   90  72  55 N5        29.96F HX  97
WATERFRONT PRK   N/A     88  74  63 VRB3      29.96R HX  97
MOUNT PLEASANT LGT RAIN  91  75  59 E3        29.96F HX 102
JOHNS ISLAND   FAIR      91  75  59 S9        29.97S HX 102
PINOPOLIS      NOT AVBL
MONCKS CORNER  FAIR      91  70  49 CALM      29.96F HX  97
SUMMERVILLE    FAIR      95  70  43 E3        29.97F HX 101
BEAUFORT MCAS  MOSUNNY   92  73  53 VRB5      29.97F HX 100
BEAUFORT ARPT  FAIR      90  75  62 NE3       29.97S HX 100
HILTON HEAD IS MOSUNNY   90  79  70 N5        29.99S HX 105
WALTERBORO     PTSUNNY   93  68  43 N5        29.98S HX  97
ALLENDALE      FAIR      93  70  46 VRB5      29.96F HX  99

...SOUTHERN MIDLANDS AND PEE DEE...

CITY           SKY/WX    TMP DP  RH WIND       PRES   REMARKS
GEORGETOWN     NOT AVBL
KINGSTREE      NOT AVBL
ORANGEBURG     MOSUNNY   88  71  57 SW7       29.97F HX  94
BARNWELL       FAIR      93  70  46 E3        29.98S HX  99
AIKEN          FAIR      90  63  40 NW5       30.02F HX  90
MANNING        FAIR      91  64  40 NE5       29.97S HX  93
COLUMBIA       MOSUNNY   93  67  42 VRB5      29.97F HX  96
SUMTER         MOSUNNY   91  69  48 E7        29.96F HX  96
FLORENCE       MOSUNNY   92  70  48 NE7       29.97F HX  97
MYRTLE BEACH   MOSUNNY   88  73  62 SE9       30.00S HX  96
N MYRTLE BEACH SUNNY     86  75  69 SE8       29.98S HX  95

$$

GAZ063-065-086>088-099>101-113>116-118-119-134>141-150-041800-
...SOUTHEAST GEORGIA...

CITY           SKY/WX    TMP DP  RH WIND       PRES   REMARKS
SAVANNAH ARPT  PTSUNNY   91  72  53 S5        29.97F HX  98
HUNTER AAF     SUNNY     90  81  74 VRB3      29.95F HX 108
FORT STEWART   SUNNY     91  70  49 CALM      29.96F HX  97
STATESBORO     SUNNY     91  75  58 CALM      29.97F HX 102
SYLVANIA       NOT AVBL
CLAXTON        NOT AVBL

...CSRA...CENTRAL AND FAR SOUTHEAST GEORGIA...

CITY           SKY/WX    TMP DP  RH WIND       PRES   REMARKS
THOMSON        MOSUNNY   91  76  61 N5        30.04S HX 102
AUGUSTA-BUSH   SUNNY     93  73  52 N8        29.97F HX 102
AUGUSTA-DANIEL SUNNY     93  71  48 NW7       29.99F HX 100
SWAINSBORO     PTSUNNY   90  70  51 CALM      29.99S HX  95
VIDALIA        PTSUNNY   91  72  52 E5        29.99S HX  98
EASTMAN        FAIR      89  73  58 CALM      30.01F HX  96
HAZLEHURST     FAIR      91  72  52 CALM      29.97F HX  98
ALMA           SUNNY     91  72  53 CALM      29.98F HX  98
WAYCROSS       MOSUNNY   93  76  58 CALM      29.98F HX 105
JESUP          FAIR      95  77  55 CALM      29.98S HX 109
BAXLEY         FAIR      91  72  52 SE5       29.97F HX  98
BRUNSWICK      PTSUNNY   90  73  58 CALM      29.98F HX  98
SAINT SIMONS   MOSUNNY   86  75  69 SE9       29.98S HX  95

$$

SCZ027-028-034-036>038-045-046-048>050-GAZ119-141-041800-
...LAKE AND SUPPLEMENTAL COASTAL OBSERVATIONS...

STATION/POSITION TIME  TEMP    WIND        PRES    WAVE   SWELL
                       AIR SEA DIR/SP/G            HT/PER HT/PER/DIR
                 (UTC) (F)     (DEG/KT/KT) (MB)    (FT/S) (FT/S/D)
UPR LAKE MARION  NOT AVBL
WINYAH BAY       1600   85      80/  7     1014.0
LAKE MURRAY      1600   87      40/  1/  4 1014.9S
ACE BASIN NERRS  NOT AVBL
FORT PULASKI     1700   86 84   80/  5/  5 1015.5F
SAPELO ISLAND    1700   90     100/  4     1015.0S

$$

ANZ835-935-AMZ111-154-330-350-352-354-370-450-454-472-041800-
...C-MAN AND BUOY OBSERVATIONS...

STATION/POSITION TIME  TEMP    WIND        PRES    WAVE   SWELL
                       AIR SEA DIR/SP/G            HT/PER HT/PER/DIR
                 (UTC) (F)     (DEG/KT/KT) (MB)    (FT/S) (FT/S/D)
BUOY 41004       1650   83 85   40/  4/  4 1014.9F   1/ 7   2/ 7
BUOY 41008       1650   83 85   20/  2/  4 1015.4F   1/ 8   2/110/ 8
FOLLY BEACH CMAN 1700   85     130/  5/  5 1015.2F
CAPERS NEARSHORE 1608   84      80/  4/  6 1015.2R
FRIPP NEARSHORE  1600   86      80/  4/  4 1014.8S


STATION/POSITION TIME  TEMP    WIND        PRES    WAVE   SWELL
                       AIR SEA DIR/SP/G            HT/PER HT/PER/DIR
                 (UTC) (F)     (DEG/KT/KT) (MB)    (FT/S) (FT/S/D)
5E ST. MARYS GA  1621      87                N/A     1/ 8
FRYING PAN BUOY  1650   82 82   50/  8/  8 1015.4F   1/ 3   2/200/ 5
BUOY 41025       1650   83 84  350/  6/  6 1014.9F   1/11   2/290/11
CAPE LOOKOUT NC  1700   83      80/  5/  5 1014.8F
BUOY 41002       1650   82 85   30/  4/  4 1014.4R   2/12   2/ 60/12
BUOY 41010       1620   81 85  200/  4/  6 1014.8F
ST AUGUSTINE FL  1700   83 84   40/  7/  8 1016.0F


$$



USA.gov is the U.S. government's official web portal to all federal, state and local government web resources and services.